Change the Weather History Date:

Saturday, May 4, 2013

  Actual Average Record
Temperature  
Mean Temperature 51 °F -  
Max Temperature 74 °F 74 °F 84 °F (1956)
Min Temperature 28 °F 36 °F 21 °F (1967)
Degree Days  
Heating Degree Days 14    
Growing Degree Days 1 (Base 50)    
Moisture  
Dew Point 8 °F    
Average Humidity 17    
Maximum Humidity 36    
Minimum Humidity 8    
Precipitation  
Precipitation 0.00 in - - ()
Sea Level Pressure  
Sea Level Pressure 30.02 in    
Wind  
Wind Speed 9 mph (SE)    
Max Wind Speed 23 mph    
Max Gust Speed 31 mph    
Visibility 10 miles    
Events      
Averages and records for this station are not official NWS values.
T = Trace of Precipitation, MM = Missing Value Source: NWS Daily Summary

Daily Weather History Graph

Daily Weather History Graph

Search for Another Location

Airport or City:

Trip Planner

Search our weather history database for the weather conditions in past years. The results will help you decide how hot, cold, wet, or windy it might be!

Date:

Astronomy

May. 04, 2013 Rise Set
Actual Time 6:17 AM MDT 8:00 PM MDT
Civil Twilight 5:49 AM MDT 8:27 PM MDT
Nautical Twilight 5:16 AM MDT 9:00 PM MDT
Astronomical Twilight 4:41 AM MDT 9:35 PM MDT
Moon 3:05 AM MDT (5/4) 3:11 PM MDT (5/4)
Length of Visible Light 14h 37m
Length of Day
13h 43m
Waning Crescent, 26% of the Moon is Illuminated
May 4
Waning Crescent
May 9
New
May 17
First Quarter
May 24
Full
May 31
Last Quarter

Hourly Weather History & Observations

Time (MDT) Temp. Windchill Dew Point Humidity Pressure Visibility Wind Dir Wind Speed Gust Speed Precip Events Conditions
12:15 AM 46.9 °F - 10.8 °F 23% 30.08 in 10.0 mi SSW 5.8 mph - N/A   Clear
12:35 AM 49.5 °F - 11.1 °F 21% 30.09 in 10.0 mi SSW 8.1 mph - N/A   Clear
12:55 AM 46.9 °F - 10.4 °F 23% 30.08 in 10.0 mi SSE 4.6 mph - N/A   Clear
1:15 AM 45.9 °F 43.6 °F 8.8 °F 22% 30.07 in 10.0 mi South 4.6 mph - N/A   Clear
1:35 AM 45.3 °F 44.0 °F 10.8 °F 25% 30.07 in 10.0 mi SSE 3.5 mph - N/A   Clear
1:55 AM 43.2 °F 40.5 °F 9.5 °F 25% 30.06 in 10.0 mi South 4.6 mph - N/A   Clear
2:15 AM 43.3 °F - 9.9 °F 26% 30.06 in 10.0 mi Calm Calm - N/A   Clear
2:35 AM 35.4 °F 31.5 °F 5.7 °F 29% 30.06 in 10.0 mi NNW 4.6 mph - N/A   Clear
2:55 AM 34.5 °F - 5.9 °F 30% 30.06 in 10.0 mi Calm Calm - N/A   Clear
3:15 AM 33.6 °F - 4.5 °F 29% 30.05 in 10.0 mi Calm Calm - N/A   Clear
3:35 AM 32.7 °F - 5.5 °F 32% 30.05 in 10.0 mi Calm Calm - N/A   Clear
3:55 AM 28.2 °F - -0.6 °F 29% 30.06 in 10.0 mi Calm Calm - N/A   Clear
4:15 AM 31.8 °F - 5.0 °F 32% 30.06 in 10.0 mi Calm Calm - N/A   Clear
4:35 AM 29.3 °F 23.2 °F 2.7 °F 32% 30.06 in 10.0 mi NNW 5.8 mph - N/A   Clear
4:55 AM 29.7 °F 23.7 °F 3.6 °F 33% 30.06 in 10.0 mi NW 5.8 mph - N/A   Clear
5:15 AM 31.5 °F 25.8 °F 3.7 °F 31% 30.05 in 10.0 mi NNW 5.8 mph - N/A   Clear
5:55 AM 29.7 °F 26.1 °F 2.7 °F 32% 30.05 in 10.0 mi NW 3.5 mph - N/A   Clear
6:15 AM 28.4 °F - 4.3 °F 36% 30.06 in 10.0 mi Calm Calm - N/A   Clear
6:35 AM 31.8 °F 28.5 °F 4.3 °F 31% 30.06 in 10.0 mi NNW 3.5 mph - N/A   Clear
6:55 AM 29.8 °F 23.9 °F 3.0 °F 32% 30.06 in 10.0 mi NNW 5.8 mph - N/A   Clear
7:15 AM 33.4 °F 29.1 °F 4.1 °F 29% 30.06 in 10.0 mi NNW 4.6 mph - N/A   Clear
7:35 AM 36.0 °F - 3.9 °F 26% 30.07 in 10.0 mi Calm Calm - N/A   Clear
7:55 AM 39.4 °F - 6.3 °F 25% 30.07 in 10.0 mi Calm Calm - N/A   Clear
8:15 AM 44.1 °F 41.5 °F 7.5 °F 22% 30.07 in 10.0 mi SE 4.6 mph - N/A   Clear
8:35 AM 48.6 °F - 8.4 °F 20% 30.07 in 10.0 mi ESE 8.1 mph - N/A   Clear
8:55 AM 51.1 °F - 8.6 °F 18% 30.06 in 10.0 mi SE 10.4 mph - N/A   Clear
9:15 AM 53.6 °F - 7.9 °F 16% 30.06 in 10.0 mi SSE 10.4 mph - N/A   Clear
9:35 AM 57.4 °F - 8.6 °F 14% 30.06 in 10.0 mi SSE 11.5 mph - N/A   Clear
9:55 AM 59.7 °F - 9.1 °F 14% 30.05 in 10.0 mi SE 10.4 mph 16.1 mph N/A   Clear
10:15 AM 61.2 °F - 9.0 °F 13% 30.05 in 10.0 mi SE 13.8 mph 19.6 mph N/A   Clear
10:35 AM 62.2 °F - 9.0 °F 12% 30.05 in 10.0 mi SE 13.8 mph 19.6 mph N/A   Clear
10:55 AM 63.1 °F - 9.5 °F 12% 30.05 in 10.0 mi SE 13.8 mph 20.7 mph N/A   Clear
11:15 AM 65.3 °F - 10.0 °F 12% 30.05 in 10.0 mi SE 13.8 mph 20.7 mph N/A   Clear
11:35 AM 65.5 °F - 9.7 °F 11% 30.04 in 10.0 mi ESE 16.1 mph 20.7 mph N/A   Clear
11:55 AM 66.7 °F - 9.7 °F 11% 30.04 in 10.0 mi ESE 18.4 mph 24.2 mph N/A   Clear
12:15 PM 68.0 °F - 10.2 °F 11% 30.04 in 10.0 mi SE 16.1 mph 23.0 mph N/A   Clear
12:35 PM 68.9 °F - 10.9 °F 11% 30.02 in 10.0 mi SE 17.3 mph 25.3 mph N/A   Clear
12:55 PM 70.9 °F - 11.3 °F 10% 30.02 in 10.0 mi SE 15.0 mph 20.7 mph N/A   Clear
1:15 PM 70.7 °F - 11.3 °F 10% 30.01 in 10.0 mi ESE 15.0 mph 20.7 mph N/A   Clear
1:35 PM 71.8 °F - 11.3 °F 10% 30.00 in 10.0 mi SE 18.4 mph 25.3 mph N/A   Clear
1:55 PM 72.3 °F - 10.9 °F 9% 30.00 in 10.0 mi SE 16.1 mph 27.6 mph N/A   Clear
2:15 PM 73.8 °F - 10.9 °F 9% 29.99 in 10.0 mi SE 16.1 mph 25.3 mph N/A   Clear
2:35 PM 73.4 °F - 10.9 °F 9% 29.98 in 10.0 mi ESE 17.3 mph 24.2 mph N/A   Clear
2:55 PM 73.8 °F - 10.6 °F 9% 29.98 in 10.0 mi SE 15.0 mph 25.3 mph N/A   Clear
3:15 PM 74.3 °F - 10.8 °F 9% 29.97 in 10.0 mi ESE 16.1 mph 27.6 mph N/A   Clear
3:35 PM 74.1 °F - 10.4 °F 9% 29.96 in 10.0 mi ESE 15.0 mph 21.9 mph N/A   Clear
3:55 PM 74.8 °F - 10.4 °F 8% 29.95 in 10.0 mi SE 18.4 mph 25.3 mph N/A   Clear
4:15 PM 74.8 °F - 9.9 °F 8% 29.95 in 10.0 mi SE 17.3 mph 25.3 mph N/A   Clear
4:35 PM 72.9 °F - 8.6 °F 8% 29.95 in 10.0 mi SE 16.1 mph 23.0 mph N/A   Clear
4:55 PM 74.1 °F - 9.0 °F 8% 29.94 in 10.0 mi ESE 17.3 mph 26.5 mph N/A   Clear
5:15 PM 71.8 °F - 7.7 °F 8% 29.94 in 10.0 mi SE 18.4 mph 27.6 mph N/A   Clear
5:35 PM 71.8 °F - 8.2 °F 9% 29.94 in 10.0 mi ESE 18.4 mph 24.2 mph N/A   Scattered Clouds
5:55 PM 72.1 °F - 7.9 °F 8% 29.94 in 10.0 mi ESE 16.1 mph 23.0 mph N/A   Clear
6:15 PM 71.8 °F - 7.5 °F 8% 29.94 in 10.0 mi SE 19.6 mph 25.3 mph N/A   Clear
6:35 PM 71.4 °F - 7.3 °F 8% 29.95 in 10.0 mi SE 19.6 mph 24.2 mph N/A   Clear
6:55 PM 69.8 °F - 6.8 °F 9% 29.95 in 10.0 mi SE 16.1 mph 23.0 mph N/A   Clear
7:15 PM 68.9 °F - 6.6 °F 9% 29.95 in 10.0 mi SE 15.0 mph 21.9 mph N/A   Clear
7:35 PM 68.2 °F - 5.9 °F 9% 29.96 in 10.0 mi SE 12.7 mph 24.2 mph N/A   Clear
7:55 PM 66.9 °F - 5.7 °F 9% 29.97 in 10.0 mi SE 13.8 mph 24.2 mph N/A   Clear
8:15 PM 65.5 °F - 5.4 °F 9% 29.98 in 10.0 mi SE 13.8 mph 19.6 mph N/A   Clear
8:35 PM 64.4 °F - 5.0 °F 10% 29.99 in 10.0 mi SSE 12.7 mph - N/A   Clear
8:55 PM 63.5 °F - 4.8 °F 10% 30.00 in 10.0 mi SSE 12.7 mph - N/A   Clear
9:15 PM 63.3 °F - 4.8 °F 10% 30.01 in 10.0 mi South 8.1 mph - N/A   Clear
9:35 PM 61.7 °F - 4.6 °F 10% 30.02 in 10.0 mi SSE 8.1 mph - N/A   Clear
9:55 PM 62.8 °F - 5.5 °F 10% 30.03 in 10.0 mi SSE 11.5 mph - N/A   Clear
10:15 PM 62.2 °F - 5.9 °F 11% 30.03 in 10.0 mi SSE 13.8 mph - N/A   Clear
10:35 PM 61.7 °F - 6.6 °F 11% 30.04 in 10.0 mi SSE 12.7 mph 18.4 mph N/A   Clear
10:55 PM 62.1 °F - 7.5 °F 12% 30.06 in 10.0 mi ESE 16.1 mph 23.0 mph N/A   Clear
11:15 PM 61.0 °F - 7.3 °F 12% 30.06 in 10.0 mi ESE 23.0 mph 31.1 mph N/A   Scattered Clouds
11:35 PM 60.1 °F - 7.0 °F 12% 30.06 in 10.0 mi ESE 19.6 mph 27.6 mph N/A   Scattered Clouds
11:55 PM 59.2 °F - 7.2 °F 13% 30.06 in 10.0 mi ESE 17.3 mph 24.2 mph N/A   Clear